Weather History for KGRB - September, 2013

Change the Weather History Date:

Friday, September 13, 2013

  Actual Average Record
Temperature  
Mean Temperature 54 °F 60 °F  
Max Temperature 63 °F 71 °F 92 °F (1952)
Min Temperature 44 °F 50 °F 33 °F (1953)
Degree Days  
Heating Degree Days 11 6  
Month to date heating degree days 34 55  
Since 1 July heating degree days 74 118  
Cooling Degree Days 0 1  
Month to date cooling degree days 43 23  
Year to date cooling degree days 521 385  
Growing Degree Days 4 (Base 50)    
Moisture  
Dew Point 43 °F    
Average Humidity 72    
Maximum Humidity 93    
Minimum Humidity 51    
Precipitation  
Precipitation 0.00 in 0.10 in 1.56 in (1954)
Month to date precipitation 1.88 1.31  
Year to date precipitation 25.87 21.71  
Snow  
Snow 0.00 in 0.00 in 0.00 in ()
Month to date snowfall 0.0 0.0  
Since 1 July snowfall 0.0 0.0  
Since 1 September snowfall 0.0 0.0  
Snow Depth 0.00 in    
Sea Level Pressure  
Sea Level Pressure 30.20 in    
Wind  
Wind Speed 4 mph (North)    
Max Wind Speed 16 mph    
Max Gust Speed 24 mph    
Visibility 10 miles    
Events      
T = Trace of Precipitation, MM = Missing Value Source: NWS Daily Summary

Daily Weather History Graph

Daily Weather History Graph

Search for Another Location

Airport or City:

Trip Planner

Search our weather history database for the weather conditions in past years. The results will help you decide how hot, cold, wet, or windy it might be!

Date:

Astronomy

Sep. 13, 2013 Rise Set
Actual Time 6:29 AM CDT 7:06 PM CDT
Civil Twilight 6:00 AM CDT 7:35 PM CDT
Nautical Twilight 5:25 AM CDT 8:10 PM CDT
Astronomical Twilight 4:49 AM CDT 8:46 PM CDT
Moon 3:05 PM CDT (9/13) No Moon Set
Length of Visible Light 13h 35m
Length of Day
12h 36m
First Quarter, 61% of the Moon is Illuminated
Sep 13
First Quarter
Sep 19
Full
Sep 26
Last Quarter
Oct 4
New
Oct 11
First Quarter

Hourly Weather History & Observations

Time (CDT) Temp. Windchill Dew Point Humidity Pressure Visibility Wind Dir Wind Speed Gust Speed Precip Events Conditions
12:53 AM 48.0 °F - 44.1 °F 86% 30.18 in 10.0 mi North 5.8 mph - N/A   Clear
1:53 AM 46.9 °F - 43.0 °F 86% 30.19 in 10.0 mi NNW 5.8 mph - N/A   Clear
2:53 AM 46.0 °F 42.5 °F 43.0 °F 89% 30.19 in 10.0 mi NW 6.9 mph - N/A   Clear
3:53 AM 45.0 °F 41.2 °F 42.1 °F 90% 30.19 in 10.0 mi NNW 6.9 mph - N/A   Clear
4:53 AM 45.0 °F 40.6 °F 43.0 °F 93% 30.21 in 10.0 mi North 8.1 mph - N/A   Mostly Cloudy
5:53 AM 45.0 °F 40.6 °F 41.0 °F 86% 30.21 in 10.0 mi NNW 8.1 mph - N/A   Clear
6:53 AM 44.1 °F - 41.0 °F 89% 30.23 in 10.0 mi North - - N/A   Clear
7:53 AM 48.0 °F - 41.0 °F 77% 30.25 in 10.0 mi North 10.4 mph - N/A   Clear
8:53 AM 51.1 °F - 41.0 °F 68% 30.25 in 10.0 mi NNE 13.8 mph 19.6 mph N/A   Clear
9:53 AM 54.0 °F - 41.0 °F 62% 30.25 in 10.0 mi NE 11.5 mph - N/A   Partly Cloudy
10:53 AM 55.0 °F - 41.0 °F 59% 30.25 in 10.0 mi North 5.8 mph - N/A   Clear
11:53 AM 57.0 °F - 41.0 °F 55% 30.25 in 10.0 mi Calm Calm - N/A   Clear
12:53 PM 57.9 °F - 43.0 °F 58% 30.24 in 10.0 mi NE 8.1 mph - N/A   Partly Cloudy
1:53 PM 61.0 °F - 45.0 °F 56% 30.22 in 10.0 mi NE 9.2 mph - N/A   Clear
2:53 PM 60.1 °F - 43.0 °F 53% 30.20 in 10.0 mi Calm Calm - N/A   Clear
3:53 PM 63.0 °F - 45.0 °F 52% 30.19 in 10.0 mi Calm Calm - N/A   Clear
4:53 PM 63.0 °F - 44.1 °F 50% 30.18 in 10.0 mi NNW 3.5 mph - N/A   Clear
5:53 PM 63.0 °F - 44.1 °F 50% 30.18 in 10.0 mi Calm Calm - N/A   Clear
6:53 PM 57.0 °F - 48.0 °F 72% 30.17 in 10.0 mi Calm Calm - N/A   Clear
7:53 PM 50.0 °F - 46.9 °F 89% 30.18 in 10.0 mi Calm Calm - N/A   Clear
8:53 PM 50.0 °F - 46.9 °F 89% 30.18 in 10.0 mi Calm Calm - N/A   Clear
9:53 PM 48.9 °F - 46.0 °F 90% 30.17 in 10.0 mi SSE 3.5 mph - N/A   Clear
10:53 PM 46.9 °F - 44.1 °F 90% 30.17 in 10.0 mi Calm Calm - N/A   Clear
11:53 PM 46.0 °F - 44.1 °F 93% 30.16 in 10.0 mi Calm Calm - N/A   Clear